Simultaneous Nadir Overpasses (SNOs) Predictions

Prediction of SNOs between FY3D and NOAA-19 Satellite Orbit:

Table of predicted SNOs for the next 14.0 days since TLE Epoch: 9/7/2019
Index Date (FY3D) Time (FY3D) Lat,Lon (FY3D) SZA (FY3D ) Date (NOAA-19) Time (NOAA-19) Lat,Lon (NOAA-19) SZA (NOAA-19 ) Distance(km) Time Diff (sec)
1 09/15/2019 10:30:59 -79.94, 165.22 101.22 09/15/2019 10:29:53 -79.95, 165.35 101.20 2.83 66
2 09/15/2019 11:21:44 79.94, -27.40 78.79 09/15/2019 11:20:56 79.95, -27.39 78.82 2.09 48
3 09/15/2019 12:12:28 -79.94, 139.89 101.20 09/15/2019 12:11:54 -79.95, 139.78 101.17 2.39 34
4 09/15/2019 13:03:14 79.96, -53.03 78.86 09/15/2019 13:02:57 79.95, -52.97 78.85 1.85 17
5 09/15/2019 13:53:58 -79.96, 114.27 101.13 09/15/2019 13:53:55 -79.94, 114.21 101.14 2.66 3
6 09/15/2019 14:44:43 79.96, -78.36 78.88 09/15/2019 14:44:57 79.97, -78.23 78.87 2.60 14
7 09/15/2019 15:35:27 -79.96, 88.94 101.11 09/15/2019 15:35:55 -79.96, 88.95 101.12 0.18 28
8 09/15/2019 16:26:12 79.95,-103.69 78.90 09/15/2019 16:26:58 79.96,-103.81 78.90 2.58 46
9 09/15/2019 17:16:56 -79.95, 63.61 101.09 09/15/2019 17:17:55 -79.98, 63.68 101.10 2.99 59




NCC Satellite Simultaneous Nadir Overpasses (SNOs) Prediction Service
